FW5436 Weather Reports


Display with metric or nautical units.
time (UTC)temp
F
wind
direction
speed
MPH
gust
MPH
rain 1hr
in
rain 24hr
in
rain mn
in
humidity
%
barometer
mb
20260906205435 44 113 0.0 2.0 0.00 0.04 0.05 75 1029.8
20260906204414 44 158 0.0 2.0 0.00 0.04 0.05 76 1029.8
20260906203354 44 225 0.0 2.0 0.00 0.04 0.05 76 1029.9
20260906202843 44 248 0.0 2.0 0.00 0.04 0.05 77 1029.9
20260906202339 44 158 0.0 2.0 0.00 0.04 0.05 77 1029.9
20260906201824 44 135 0.0 2.0 0.00 0.04 0.05 77 1030.0
20260906201313 44 225 0.0 2.0 0.00 0.04 0.05 77 1030.0
20260906200253 44 135 1.0 4.0 0.00 0.04 0.05 77 1029.9
20260906195743 44 338 0.0 4.0 0.00 0.04 0.05 77 1030.0
20260906195234 45 180 1.0 4.0 0.00 0.04 0.05 76 1030.1
20260906194723 45 158 2.0 4.0 0.00 0.04 0.05 75 1030.2
20260906194212 45 180 1.0 4.0 0.00 0.04 0.05 73 1030.0
20260906193703 46 113 1.0 4.0 0.00 0.04 0.05 69 1029.9
20260906193152 46 68 0.0 4.0 0.00 0.04 0.05 67 1029.9
20260906192642 47 338 1.0 4.0 0.00 0.04 0.05 66 1030.0
20260906192131 46 113 0.0 4.0 0.00 0.04 0.05 65 1029.8
20260906191622 47 135 0.0 2.0 0.00 0.04 0.05 62 1029.8
20260906191111 47 203 0.0 2.0 0.00 0.04 0.05 62 1029.9
20260906190601 46 45 0.0 4.0 0.00 0.04 0.05 62 1030.0
20260906190051 46 45 2.0 4.0 0.00 0.04 0.05 61 1030.0
20260906185541 47 158 1.0 4.0 0.00 0.04 0.05 62 1029.9
20260906185031 46 225 1.0 6.0 0.00 0.04 0.05 64 1030.1
20260906184011 46 203 1.0 4.0 0.00 0.04 0.05 66 1030.1
20260906183501 46 23 2.0 6.0 0.00 0.04 0.05 66 1030.1
20260906182950 46 270 2.0 6.0 0.00 0.04 0.05 64 1030.3
20260906182440 47 23 1.0 4.0 0.00 0.04 0.05 64 1029.9
20260906181930 47 113 1.0 4.0 0.00 0.04 0.05 65 1030.2
20260906181420 47 23 1.0 4.0 0.00 0.04 0.05 62 1029.9
20260906180911 47 90 2.0 4.0 0.00 0.04 0.05 60 1030.1
20260906180400 47 158 0.0 4.0 0.00 0.04 0.05 60 1030.2
20260906175850 47 68 2.0 2.0 0.00 0.04 0.05 59 1030.0
20260906174829 47 0 1.0 4.0 0.00 0.04 0.05 60 1030.2
20260906173809 47 0 1.0 6.0 0.00 0.04 0.05 63 1030.2
20260906173258 46 203 1.0 6.0 0.00 0.04 0.05 64 1030.3
20260906172749 46 90 2.0 6.0 0.00 0.04 0.05 63 1030.4
20260906171728 46 315 1.0 6.0 0.00 0.04 0.05 66 1030.6
20260906171218 46 45 1.0 6.0 0.00 0.04 0.05 65 1030.5
20260906170708 46 90 0.0 6.0 0.00 0.04 0.05 67 1030.7
20260906170158 46 68 1.0 6.0 0.00 0.04 0.05 66 1030.7
20260906165648 45 68 2.0 6.0 0.00 0.04 0.05 68 1030.8
20260906165138 46 0 2.0 4.0 0.00 0.04 0.05 68 1030.8
20260906164627 46 203 2.0 4.0 0.00 0.04 0.05 66 1030.7
20260906164129 46 158 0.0 4.0 0.00 0.04 0.05 63 1030.8
20260906163607 46 113 2.0 4.0 0.00 0.04 0.05 67 1030.9
20260906163057 45 180 0.0 4.0 0.00 0.04 0.05 71 1031.1
20260906162546 44 203 2.0 4.0 0.00 0.04 0.05 74 1031.0
20260906162037 44 180 2.0 4.0 0.00 0.04 0.05 76 1031.2
20260906161526 44 203 1.0 4.0 0.00 0.04 0.05 77 1031.2
20260906161017 44 180 1.0 4.0 0.00 0.04 0.05 78 1031.2
20260906160506 44 270 2.0 4.0 0.00 0.04 0.05 78 1031.4
20260906155956 44 203 2.0 6.0 0.00 0.04 0.05 78 1031.5
20260906154936 45 225 3.0 6.0 0.00 0.04 0.05 76 1031.3
20260906154425 45 90 2.0 8.0 0.00 0.04 0.05 75 1031.6
20260906153405 47 225 5.0 8.0 0.00 0.04 0.05 66 1031.6
20260906152345 47 180 2.0 4.0 0.00 0.04 0.05 62 1031.6
20260906151325 47 45 2.0 4.0 0.00 0.04 0.05 62 1031.7
20260906150815 47 0 2.0 4.0 0.00 0.04 0.05 63 1031.7
20260906150305 47 293 2.0 4.0 0.00 0.04 0.05 62 1031.7
20260906145244 46 68 2.0 6.0 0.00 0.04 0.05 66 1031.9
20260906144735 46 23 2.0 6.0 0.00 0.04 0.05 67 1031.8
20260906143715 46 293 2.0 6.0 0.00 0.04 0.05 70 1031.9
20260906142659 45 315 2.0 4.0 0.00 0.04 0.05 70 1031.7
20260906142143 46 23 2.0 4.0 0.00 0.04 0.05 70 1031.9
20260906141633 45 225 1.0 4.0 0.00 0.04 0.05 72 1031.8
20260906141123 45 90 1.0 4.0 0.00 0.04 0.05 73 1031.8
20260906140612 44 68 2.0 4.0 0.00 0.04 0.05 73 1031.9
20260906135553 44 0 2.0 4.0 0.00 0.04 0.05 75 1031.9
20260906135042 44 270 2.0 6.0 0.00 0.04 0.05 74 1031.9
20260906134532 44 45 2.0 6.0 0.00 0.04 0.05 73 1031.9
20260906133513 44 45 2.0 7.0 0.00 0.04 0.05 75 1031.8
20260906133002 44 68 2.0 7.0 0.00 0.04 0.05 75 1031.8
20260906132451 44 158 1.0 2.0 0.00 0.04 0.05 75 1032.0
20260906130922 43 338 1.0 4.0 0.00 0.04 0.05 78 1032.0
20260906130412 43 0 1.0 7.0 0.00 0.04 0.05 78 1031.8
20260906125351 42 23 2.0 6.0 0.00 0.04 0.05 78 1031.7
20260906124841 42 23 2.0 6.0 0.00 0.04 0.05 78 1031.6
20260906124330 42 293 3.0 6.0 0.00 0.04 0.05 77 1031.5
20260906123820 42 45 2.0 4.0 0.00 0.04 0.05 78 1031.7
20260906123310 42 338 2.0 4.0 0.00 0.04 0.05 78 1031.6
20260906122800 42 338 2.0 4.0 0.00 0.04 0.05 80 1031.3
20260906121741 42 68 2.0 4.0 0.00 0.04 0.05 82 1031.4
20260906121230 41 45 2.0 4.0 0.00 0.04 0.05 82 1031.4
20260906120210 41 23 2.0 6.0 0.00 0.04 0.05 83 1031.2
20260906115659 40 45 0.0 6.0 0.00 0.04 0.05 83 1031.3
20260906115149 40 23 2.0 6.0 0.00 0.04 0.05 84 1031.3
20260906114639 40 45 2.0 4.0 0.00 0.04 0.05 85 1031.2
20260906114129 40 180 2.0 4.0 0.00 0.04 0.05 85 1031.0
20260906113109 39 0 2.0 4.0 0.00 0.04 0.05 85 1031.1
20260906112558 39 23 2.0 4.0 0.00 0.04 0.05 86 1031.1
20260906111538 39 0 1.0 4.0 0.00 0.04 0.05 88 1030.9
20260906111028 38 0 2.0 4.0 0.00 0.04 0.05 89 1030.9
20260906110519 38 68 2.0 7.0 0.00 0.04 0.05 89 1030.7
20260906110015 38 45 2.0 7.0 0.00 0.04 0.05 90 1030.9
20260906104947 38 0 2.0 4.0 0.00 0.04 0.05 91 1030.8
20260906104438 38 0 1.0 4.0 0.00 0.04 0.05 91 1030.7
20260906102908 37 45 2.0 4.0 0.00 0.04 0.05 91 1030.7
20260906102357 37 45 2.0 2.0 0.00 0.04 0.05 91 1030.7
20260906101847 37 0 0.0 4.0 0.00 0.04 0.05 91 1030.7
20260906101337 37 338 2.0 4.0 0.00 0.04 0.05 91 1030.7
20260906100316 37 45 1.0 4.0 0.00 0.04 0.05 91 1030.5
20260906095806 37 68 1.0 4.0 0.00 0.04 0.05 91 1030.4
20260906094746 38 113 0.0 4.0 0.00 0.04 0.05 91 1030.1
20260906094236 38 113 1.0 4.0 0.00 0.04 0.05 91 1030.4
20260906093216 38 113 1.0 2.0 0.00 0.04 0.05 91 1030.3
20260906092705 38 45 0.0 2.0 0.00 0.04 0.05 91 1030.1
20260906091649 38 158 1.0 4.0 0.00 0.04 0.05 91 1030.3
20260906091135 38 68 2.0 4.0 0.00 0.04 0.05 92 1030.2
20260906090114 37 23 2.0 4.0 0.00 0.04 0.05 92 1030.0
20260906085605 37 293 2.0 6.0 0.00 0.04 0.05 92 1030.0
20260906085054 37 68 2.0 6.0 0.00 0.04 0.05 92 1029.7
20260906084034 36 45 1.0 4.0 0.00 0.04 0.05 91 1029.8
20260906083524 36 23 2.0 4.0 0.01 0.04 0.05 91 1029.9
20260906083013 36 45 1.0 4.0 0.01 0.04 0.05 91 1030.0
20260906082503 37 45 1.0 4.0 0.02 0.04 0.05 91 1029.7
20260906081953 37 68 1.0 4.0 0.02 0.04 0.05 91 1030.1
20260906081444 37 315 2.0 4.0 0.02 0.04 0.05 91 1029.9
20260906080934 37 45 2.0 4.0 0.02 0.04 0.05 91 1029.7
20260906080423 38 23 2.0 2.0 0.02 0.04 0.05 91 1029.8
20260906075913 38 68 0.0 2.0 0.02 0.04 0.05 91 1029.9
20260906074853 38 45 2.0 4.0 0.04 0.04 0.05 91 1029.8
20260906074344 38 338 1.0 2.0 0.04 0.04 0.05 91 1029.5
20260906073834 38 68 1.0 2.0 0.04 0.04 0.05 90 1029.5
20260906073322 38 45 0.0 4.0 0.02 0.02 0.04 90 1029.6
20260906072811 38 225 1.0 4.0 0.02 0.02 0.04 90 1029.8
20260906072305 38 135 0.0 2.0 0.01 0.01 0.02 89 1029.7
20260906071752 38 45 0.0 4.0 0.01 0.01 0.02 89 1029.7
20260906070732 38 23 2.0 6.0 0.01 0.01 0.02 89 1029.6
20260906065711 39 90 1.0 4.0 0.01 0.01 0.02 88 1029.7
20260906064651 39 135 1.0 4.0 0.00 0.00 0.01 87 1029.6
20260906064140 38 23 1.0 4.0 0.00 0.00 0.01 87 1029.3
20260906063631 38 113 2.0 4.0 0.00 0.00 0.01 87 1029.3
20260906063120 38 45 2.0 4.0 0.00 0.00 0.01 88 1029.2
20260906062100 38 23 1.0 4.0 0.00 0.00 0.01 87 1029.2
20260906061550 38 23 2.0 4.0 0.00 0.00 0.01 87 1029.3
20260906061040 38 0 2.0 4.0 0.00 0.00 0.01 87 1029.5
20260906060530 38 45 2.0 4.0 0.00 0.00 0.01 87 1029.5
20260906060019 38 0 1.0 4.0 0.00 0.00 0.01 88 1029.6
20260906055509 38 23 1.0 4.0 0.00 0.00 0.01 88 1029.5
20260906054959 37 338 2.0 4.0 0.00 0.00 0.01 88 1029.6
20260906054450 37 338 1.0 4.0 0.00 0.00 0.01 89 1029.8
20260906053938 37 90 1.0 2.0 0.00 0.00 0.01 89 1029.7
20260906053211 37 338 1.0 0.0 0.00 0.00 0.01 88 1029.4
20260906052719 38 293 1.0 2.0 0.00 0.06 0.01 88 1029.6
20260906052209 38 45 0.0 4.0 0.00 0.06 0.01 88 1029.5
20260906051659 38 45 1.0 4.0 0.00 0.06 0.01 87 1029.4
20260906051149 38 135 1.0 4.0 0.00 0.06 0.01 87 1029.5
20260906050639 39 68 2.0 7.0 0.00 0.06 0.01 86 1029.3
20260906050129 39 0 0.0 7.0 0.00 0.06 0.01 85 1029.4
20260906045619 39 45 2.0 6.0 0.00 0.06 0.01 83 1029.3
20260906045108 39 158 2.0 4.0 0.01 0.06 0.01 83 1029.3
20260906044048 39 68 0.0 4.0 0.01 0.06 0.01 83 1028.9
20260906043538 39 90 1.0 4.0 0.01 0.06 0.01 83 1029.1
20260906043033 39 68 2.0 6.0 0.01 0.06 0.01 82 1029.3
20260906042007 39 90 1.0 4.0 0.01 0.06 0.01 81 1028.9
20260906040947 39 23 2.0 4.0 0.01 0.06 0.01 80 1029.2
20260906040437 40 0 1.0 6.0 0.01 0.06 0.01 79 1029.1
20260906035417 40 180 1.0 4.0 0.00 0.05 0.00 79 1029.4
20260906034356 40 90 1.0 4.0 0.00 0.05 0.00 77 1029.1
20260906033848 40 45 2.0 4.0 0.00 0.05 0.00 77 1029.1
20260906033336 40 45 0.0 4.0 0.00 0.05 0.00 77 1029.0
20260906032826 40 23 1.0 2.0 0.00 0.05 0.00 77 1028.9
20260906031807 40 135 1.0 4.0 0.00 0.05 0.00 78 1028.9
20260906031255 40 90 1.0 4.0 0.00 0.05 0.00 78 1029.0
20260906030751 41 23 2.0 4.0 0.00 0.05 0.00 78 1028.9
20260906030235 40 293 1.0 4.0 0.00 0.05 0.00 79 1028.9
20260906025724 40 158 1.0 4.0 0.00 0.05 0.05 80 1028.8
20260906025215 40 90 2.0 4.0 0.00 0.05 0.05 81 1028.7
20260906024704 40 113 1.0 4.0 0.00 0.05 0.05 81 1028.8
20260906024155 40 0 2.0 4.0 0.00 0.05 0.05 81 1028.7
20260906023645 40 225 2.0 4.0 0.00 0.05 0.05 82 1028.9
20260906023134 40 0 2.0 4.0 0.00 0.05 0.05 83 1028.9
20260906022624 40 90 1.0 2.0 0.00 0.05 0.05 85 1028.6
20260906022114 40 270 1.0 2.0 0.00 0.05 0.05 85 1028.7
20260906021604 40 158 1.0 2.0 0.00 0.05 0.05 86 1028.7
20260906021053 40 158 0.0 4.0 0.00 0.05 0.05 87 1028.4
20260906020543 40 90 1.0 4.0 0.00 0.05 0.05 87 1028.6
20260906020034 40 23 1.0 4.0 0.00 0.05 0.05 88 1028.6
20260906015523 40 68 1.0 4.0 0.00 0.05 0.05 88 1028.6
20260906015013 40 158 1.0 4.0 0.00 0.05 0.05 88 1028.5
20260906014503 40 68 1.0 4.0 0.00 0.05 0.05 88 1028.4
20260906012932 40 45 1.0 4.0 0.01 0.05 0.05 88 1028.2
20260906011403 41 68 1.0 4.0 0.01 0.05 0.05 87 1028.0
20260906010852 41 68 2.0 4.0 0.01 0.05 0.05 87 1027.9
20260906010342 41 158 1.0 2.0 0.01 0.05 0.05 86 1027.9
20260906005832 41 180 1.0 4.0 0.01 0.05 0.05 86 1027.9
20260906005322 41 180 0.0 4.0 0.01 0.05 0.05 86 1027.8
20260906004811 41 0 2.0 4.0 0.01 0.05 0.05 85 1027.8
20260906004301 41 90 2.0 6.0 0.01 0.05 0.05 85 1027.9
20260906003751 42 113 2.0 8.0 0.01 0.05 0.05 84 1027.7
20260906003241 42 68 3.0 8.0 0.00 0.04 0.04 83 1027.7
20260906002730 42 45 2.0 4.0 0.00 0.04 0.04 82 1027.6
20260906001715 42 68 2.0 4.0 0.00 0.04 0.04 82 1027.0
20260906001201 42 158 2.0 4.0 0.00 0.04 0.04 83 1027.1
20260906000653 42 203 2.0 4.0 0.00 0.04 0.04 83 1027.1
20260905235631 42 158 1.0 4.0 0.00 0.04 0.04 85 1026.8
20260905235120 42 225 2.0 4.0 0.00 0.04 0.04 86 1026.8
20260905234609 42 270 2.0 4.0 0.00 0.04 0.04 86 1026.5
20260905234059 42 23 2.0 6.0 0.00 0.04 0.04 86 1026.6
20260905233550 43 45 1.0 7.0 0.00 0.04 0.04 86 1026.6
20260905233040 43 23 2.0 7.0 0.00 0.04 0.04 85 1026.6
20260905232530 43 203 2.0 6.0 0.00 0.04 0.04 84 1026.9
20260905232019 43 180 2.0 6.0 0.00 0.04 0.04 84 1026.4
20260905230959 43 248 1.0 4.0 0.00 0.04 0.04 85 1026.1
20260905230448 43 68 2.0 4.0 0.00 0.04 0.04 85 1026.1
20260905225939 43 90 1.0 4.0 0.00 0.04 0.04 85 1025.8
20260905225428 43 68 2.0 4.0 0.00 0.04 0.04 85 1025.9
20260905224408 43 158 2.0 7.0 0.00 0.04 0.04 86 1025.8
20260905223903 43 90 1.0 4.0 0.00 0.04 0.04 86 1025.5
20260905223348 43 90 2.0 4.0 0.01 0.04 0.04 86 1025.5
20260905222837 43 45 1.0 4.0 0.01 0.04 0.04 85 1025.3
20260905222327 43 23 2.0 4.0 0.01 0.04 0.04 85 1025.2
20260905221316 43 248 1.0 4.0 0.01 0.04 0.04 85 1025.3
20260905220757 43 203 2.0 6.0 0.01 0.04 0.04 85 1025.1
20260905220247 43 90 2.0 6.0 0.01 0.04 0.04 86 1025.0
20260905215736 44 90 2.0 6.0 0.01 0.04 0.04 86 1025.0
20260905215227 44 113 2.0 6.0 0.01 0.04 0.04 86 1024.9
20260905214716 44 90 2.0 7.0 0.01 0.04 0.04 85 1024.8
20260905214206 45 90 2.0 7.0 0.01 0.04 0.04 84 1024.7
20260905213656 45 180 1.0 6.0 0.00 0.02 0.02 81 1024.9
20260905213146 46 90 2.0 4.0 0.00 0.02 0.02 80 1024.5
20260905212636 46 113 2.0 15.0 0.00 0.02 0.02 78 1024.4
20260905211105 47 135 4.0 8.0 0.00 0.02 0.02 70 1024.2
20260905210555 47 135 2.0 4.0 0.00 0.02 0.02 70 1024.0
20260905210045 48 135 2.0 6.0 0.00 0.02 0.02 69 1023.9